Flag for Slovakia Weather past 2 weeks in Prievidza, Slovakia

Now
72 °F

Mild.


Feels Like: 75 °F
Forecast: 58 / 81 °F
Wind: 5 mph from Northeast

Location: Prievidza

Current Time: Jul 22, 2014 at 1:34:33 PM

Latest Report: Jul 22, 2014 at 1:00 PM


Visibility: N/A

Pressure: 29.82 "Hg

Humidity: 69%

Dew point: 62 °F

Location of PrievidzaLocation

Historic Weather in Prievidza — Graph

°F

Prievidza temperature yesterday

Maximum temperature yesterday: 89 °F (at 1:00 PM)
Minimum temperature yesterday: 67 °F (at 11:00 PM)
Average temperature yesterday: 75 °F

Past Weeks' High & Low Weather Summary

 TemperatureHumidityPressure
High90 °F (Jul 20, 3:00 PM)94% (Jul 15, 5:00 AM)30.09 "Hg (Jul 15, 5:00 AM)
Low54 °F (Jul 13, 4:00 AM)32% (Jul 13, 3:00 PM)29.59 "Hg (Jul 11, 4:00 PM)
Average72 °F65%29.87 "Hg
* Reported Jul 7 12:00 Noon — Jul 22 12:00 Noon, Prievidza, Weather by CustomWeather, © 2014

Note: Actual official high and low records may vary slightly from our data, if they occured in-between our weather recording intervals... More about our weather records

Advertising

Prievidza weather history for previous 24 hours

 ConditionsComfort  
Time TempWeatherWind HumidityBarometerVisibility
12:00 PM
Jul 22
72 °FOvercast.5 mph71%29.81 "Hg25 mi
11:00 AM72 °FOvercast.5 mph72%29.80 "Hg25 mi
10:00 AM71 °FMild.5 mph78%29.79 "HgN/A
9:00 AM71 °FOvercast.5 mph78%29.79 "Hg25 mi
8:00 AM71 °FOvercast.5 mph78%29.79 "Hg22 mi
7:00 AM69 °FMild.5 mph83%29.79 "Hg16 mi
6:00 AM67 °FMild.3 mph84%29.78 "Hg16 mi
5:00 AM67 °FMild.5 mph84%29.77 "Hg19 mi
4:00 AM67 °FMild.3 mph85%29.77 "Hg16 mi
3:00 AM67 °FMild.5 mph87%29.78 "Hg13 mi
2:00 AM67 °FMild.5 mph86%29.77 "Hg13 mi
1:00 AM66 °FMild.5 mph90%29.77 "Hg9 mi
12:00 AM67 °FMild.7 mph86%29.76 "Hg12 mi
11:00 PM
Jul 21
67 °FMild.6 mph88%29.77 "Hg11 mi
10:00 PM67 °FThunderstorms. Overcast.5 mph90%29.78 "Hg11 mi
9:00 PM68 °FThundershowers. Overcast.5 mph87%29.80 "Hg11 mi
8:00 PM71 °FThundershowers. Overcast.6 mph74%29.77 "Hg19 mi
7:00 PM70 °FThunderstorms. Overcast.6 mph78%29.75 "Hg25 mi
6:00 PM71 °FThunderstorms. Overcast.6 mph76%29.76 "Hg25 mi
5:00 PM74 °FThunderstorms. Overcast.6 mph68%29.73 "Hg22 mi
4:00 PM84 °FThunderstorms. Overcast.N/A51%29.67 "Hg16 mi
3:00 PM85 °FOvercast.5 mph48%29.68 "Hg19 mi
2:00 PM87 °FPartly sunny.5 mph45%29.69 "Hg19 mi
1:00 PM89 °FPassing clouds.N/A43%29.70 "Hg19 mi
Weather by CustomWeather, © 2014

See weather overviewHow to use our weather pages